Regional Weather Roundup
Issued by NWS

Home | Current Version | Previous Version | Text Only | Print | Product List | Glossary On
Versions: 1 2 3 4 5 6 7 8 9 10 11 12 13 14 15 16 17 18 19 20 21 22 23 24 25 26 27 28 29 30 31 32 33 34 35 36 37 38 39 40 41 42 43 44 45 46 47 48 49 50
000
ASUS44 KOUN 311610
RWROK

WEATHER ROUNDUP FOR OKLAHOMA
NATIONAL WEATHER SERVICE NORMAN OK
1100 AM CDT WED AUG 31 2016

NOTE: "FAIR" INDICATES FEW OR NO CLOUDS BELOW 12,000 FEET WITH NO
      SIGNIFICANT WEATHER AND/OR OBSTRUCTIONS TO VISIBILITY.

OKZ001>007-009>012-014-015-017-311700-
NORTHWEST OKLAHOMA AND THE PANHANDLE

CITY           SKY/WX    TMP DP  RH WIND       PRES   REMARKS
GAGE           CLOUDY    76  69  79 NE5       30.17S
GUYMON         LGT RAIN  70  64  81 CALM      30.23R
$$

OKZ016-021>023-033>039-044-045-311700-
SOUTHWEST OKLAHOMA

CITY           SKY/WX    TMP DP  RH WIND       PRES   REMARKS
LAWTON/REGL    SUNNY     85  70  60 N5        30.08S
LAWTON/FT SILL SUNNY     83  71  65 VRB2      30.07S
FREDERICK      SUNNY     84  72  67 N5        30.07S
CLINTON        CLOUDY    76  70  82 N9        30.15S
HOBART         MOSUNNY   81  71  71 E5        30.12S
ALTUS AFB      MOSUNNY   82  70  66 VRB2      30.10S
$$

OKZ018>020-024>031-311700-
CENTRAL OKLAHOMA

CITY           SKY/WX    TMP DP  RH WIND       PRES   REMARKS
OKLAHOMA CITY  MOSUNNY   84  67  56 CALM      30.09S
OKC/WILEY POST PTSUNNY   84  70  62 VRB3      30.10R
OKC/TINKER AFB MOSUNNY   85  69  58 S1        30.08S
STILLWATER     SUNNY     82  71  69 NE3       30.09S
GUTHRIE        SUNNY     82  72  71 NE3       30.09S
$$

OKZ008-013-054>072-311700-
NORTHEAST OKLAHOMA

CITY           SKY/WX    TMP DP  RH WIND       PRES   REMARKS
TULSA          CLOUDY    82  74  76 E13       30.08R
TULSA/JONES    MOSUNNY   82  75  79 NE12      30.08R
PONCA CITY     MOSUNNY   80  70  71 CALM      30.10S
BARTLESVILLE   MOSUNNY   83  71  67 E8        30.10R
MUSKOGEE       MOSUNNY   88  73  61 N5        30.07S HX  95
$$

OKZ032-040>043-046>053-073>077-311700-
SOUTH CENTRAL/SOUTHEAST OKLAHOMA

CITY           SKY/WX    TMP DP  RH WIND       PRES   REMARKS
ARDMORE/DWNTWN SUNNY     86  68  54 NE3       30.05S
MCALESTER      SUNNY     87  72  60 CALM      30.06S HX  93
$$





USA.gov is the U.S. government's official web portal to all federal, state and local government web resources and services.